Regional Weather Roundup
Issued by NWS

Home | Current Version | Previous Version | Text Only | Print | Product List | Glossary On
Versions: 1 2 3 4 5 6 7 8 9 10 11 12 13 14 15 16 17 18 19 20 21 22 23 24 25 26 27 28 29 30 31 32 33 34 35 36 37 38 39 40 41 42 43 44 45 46 47 48 49 50
000
ASUS43 KMKX 181321
RWRWI

WISCONSIN REGIONAL WEATHER ROUNDUP
NATIONAL WEATHER SERVICE MILWAUKEE/SULLIVAN WI
800 AM CDT FRI AUG 18 2017

NOTE: "FAIR" INDICATES FEW OR NO CLOUDS BELOW 12,000 FEET WITH NO
SIGNIFICANT WEATHER AND/OR OBSTRUCTIONS TO VISIBILITY.

WIZ001-002-006>008-014>016-023>028-181400-
NORTHWEST WISCONSIN

CITY           SKY/WX    TMP DP  RH WIND       PRES   REMARKS
SUPERIOR ARPT    N/A     58  56  94 CALM      29.84S
ASHLAND        CLOUDY    61  58  90 W8        29.82S
HAYWARD        CLOUDY    58  55  90 W3        29.85S
SIREN          CLOUDY    58  57  97 CALM      29.88R
CUMBERLAND     CLOUDY    59  55  88 NW3       29.87R
RICE LAKE      CLOUDY    59  58  94 W5        29.88S
CHETEK         CLOUDY    60  58  93 NW6       29.87R
LADYSMITH      CLOUDY    61  58  90 NW7       29.86S
EAU CLAIRE     CLOUDY    62  58  86 NW3       29.86R
MENOMONIE      CLOUDY    61  58  90 W6        29.87S
NEW RICHMOND   MOSUNNY   60  60  99 CALM      29.88S
OSCEOLA        CLOUDY    60  60 100 CALM      29.90S
$$

WIZ003>005-009-010-017-018-181400-
NORTH CENTRAL WISCONSIN

CITY           SKY/WX    TMP DP  RH WIND       PRES   REMARKS
MANITOWISH WTR DRIZZLE   58  58 100 NW8       29.81R
ARBOR VITAE    CLOUDY    60  58  93 NW9       29.80R
WOODRUFF       CLOUDY    60  58  93 NW9       29.80R
RHINELANDER    LGT RAIN  59  58  96 VRB5      29.80R
EAGLE RIVER    CLOUDY    59  58  95 NW10      29.79R
LAND O LAKES   CLOUDY    59  56  90 NW8       29.81R
PHILLIPS       CLOUDY    59  59  99 NW3       29.82S
TOMAHAWK         N/A     59  56  89 NW8       29.82R
MEDFORD        CLOUDY    60  57  91 NW9G16    29.83R
MERRILL        MOSUNNY   61  59  94 NW7       29.81R
$$

WIZ029-030-035-036-043>047-181400-
CENTRAL WISCONSIN

CITY           SKY/WX    TMP DP  RH WIND       PRES   REMARKS
WAUSAU         CLOUDY    63  57  81 NW13      29.79R
MOSINEE        CLOUDY    61  59  94 NW9       29.83R
MARSHFIELD     MOSUNNY   63  56  78 NW12      29.83R
STEVENS POINT  CLOUDY    61  58  90 W8        29.82R
WAUPACA        CLOUDY    67  59  77 W9        29.79R
WAUTOMA        CLOUDY    65  58  78 W14       29.82R
WISC RAPIDS    CLOUDY    64  58  80 NW10      29.83R
CAMP DOUGLAS   MOSUNNY   63  59  88 NW10      29.84R
$$

WIZ011>013-019>022-031-037>040-048>050-181400-
NORTHEAST WISCONSIN

CITY           SKY/WX    TMP DP  RH WIND       PRES   REMARKS
ANTIGO         CLOUDY    60  58  91 NW13      29.79R
SHAWANO        CLOUDY    66  60  80 W8        29.75R
OCONTO         PTSUNNY   65  60  82 W6        29.71R
STURGEON BAY   CLOUDY    66  60  81 W14G20    29.70R
GREEN BAY      PTSUNNY   66  61  84 W13       29.74R
MANITOWOC      SUNNY     68  58  70 W14G22    29.74R
APPLETON       PTSUNNY   64  55  72 W14       29.76R
CLINTONVILLE   CLOUDY    64  55  72 NW12G20   29.77R
OSHKOSH        CLOUDY    65  59  81 W9        29.78R
$$

WIZ032>034-041-042-053>061-181400-
SOUTHWEST WISCONSIN

CITY           SKY/WX    TMP DP  RH WIND       PRES   REMARKS
LA CROSSE      MOSUNNY   67  61  81 NW6       29.88R
SPARTA         SUNNY     64  58  82 NW5       29.87R
VIROQUA        MOSUNNY   63  62  96 NW7       29.89R
BOSCOBEL       MOSUNNY   66  61  84 SW6       29.88R
PRAIRIE DU CHI SUNNY     64  57  80 W5        29.89R
PLATTEVILLE    SUNNY     63  63 100 W9        29.90R
$$

WIZ056-057-062-063-064-067-068-181400-
SOUTH CENTRAL WISCONSIN

CITY           SKY/WX    TMP DP  RH WIND       PRES   REMARKS
REEDSBURG      PTSUNNY   64  61  91 NW6       29.85R
BARABOO/DELLS  CLOUDY    64  56  76 NW9       29.86R
LONE ROCK      MOSUNNY   66  64  93 W8        29.86R
MINERAL POINT  PTSUNNY   64  64 100 W7        29.88R
MADISON        PTSUNNY   66  59  78 NW6       29.84R
MIDDLETON      MOSUNNY   67  62  83 W12       29.86R
WATERTOWN      CLOUDY    65  61  87 W7        29.83R
MONROE         PTSUNNY   63  61  94 W9        29.87R
JANESVILLE     PTSUNNY   66  66 100 W10       29.84R
$$

WIZ051-052-058>065-066-070>072-181400-
SOUTHEAST WISCONSIN

CITY           SKY/WX    TMP DP  RH WIND       PRES   REMARKS
MILWAUKEE      CLOUDY    69  60  73 W15G22    29.81R
WAUKESHA       CLOUDY    64  57  77 W12G23    29.83R
MILWAUKEE/TIMM CLOUDY    66  55  68 W13G20    29.81R
RACINE         CLOUDY    68  60  75 NW10      29.83R
KENOSHA        CLOUDY    66  62  87 W7        29.83R
FOND DU LAC    CLOUDY    65  58  78 W9        29.79R
SHEBOYGAN      CLOUDY    67  61  81 W9        29.76R
WEST BEND      CLOUDY    64  59  82 W9        29.80R
JUNEAU         CLOUDY    64  58  82 W8        29.83R
$$

LSZ147-162-181400-
LAKE SUPERIOR

STATION/POSITION TIME  TEMP    WIND        PRES    WAVE
                       AIR SEA DIR/SP/G            HT/PER
                 (UTC) (F)     (DEG/KT/KT) (MB)    (FT/S)
W MID LAKE BUOY  1250   61 60  300/  6/  8 1007.7R   2/ 5
DEVILS ISLAND    1300   62     280/  8/  9 1009.3R
SAXON HARBOR     1240   63     270/  6/  7 1008.8R
$$

LMZ867-665-643>646-181400-
LAKE MICHIGAN

STATION/POSITION TIME  TEMP    WIND        PRES    WAVE
                       AIR SEA DIR/SP/G            HT/PER
                 (UTC) (F)     (DEG/KT/KT) (MB)    (FT/S)
S GREEN BAY BUOY 1300   67 71  280/ 14/ 17 1006.0
N MID LAKE BUOY  1250   65 67  310/ 19/ 25 1003.3R   5/ 5
NORTHPORT PIER   1240   66     310/ 17/ 24 1004.1R
KEWAUNEE LAKESHO 1254   67     290/ 10/ 14 1005.5R
SHEBOYGAN LAKESH 1300   67     280/ 11/ 14 1007.3R
PORT WASHINGTON  1230   68     290/ 11/ 15 1008.8R
ATWATER BUOY     1209   69 70  290/ 12/ 16 1008.6R
MILWAUKEE LAKESH 1250   68     290/ 12/ 16   N/A
S MID LAKE BUOY  1250   69 71  320/ 17/ 21 1008.5R   4/ 5
KENOSHA   LAKESH 1300   67     260/  9/ 13 1009.8
$$

TC  - TEMPERATURE IN CELSIUS
VSB - VISIBILITY IN STATUTE MILES
WCI - WIND CHILL INDEX
HX  - HEAT INDEX





USA.gov is the U.S. government's official web portal to all federal, state and local government web resources and services.